Wind_Speed
3 4 5 4 8 12 13 13 13 13 13 13 12 12 12 11 10 10 10 9 9 10 9 8 7 6 6 6 8 12 8 10
3 4 3 4 2 6 11 14 14 14 14 13 13 12 12 11 9 9 9 9 8 9 8 8 7 5 4 4 5 9 11 8
3 3 4 3 3 3 6 12 15 15 15 14 13 12 12 11 10 9 9 8 8 6 6 5 6 5 3 3 1 3 6 6
4 5 2 5 3 1 3 4 10 15 15 15 14 13 13 13 12 11 10 9 8 8 7 6 6 5 4 3 3 5 4 5
3 5 6 7 8 6 3 2 2 10 16 17 17 16 15 15 14 12 11 10 10 10 9 9 9 8 7 5 5 9 5 3
6 8 9 10 9 10 9 6 2 3 9 16 19 18 18 17 16 15 14 14 14 13 12 13 12 10 9 8 8 9 10 7
8 11 12 13 13 11 13 10 8 6 5 9 15 20 21 21 19 19 18 17 16 16 16 16 15 14 13 11 12 12 11 11
15 16 16 17 16 13 13 14 13 12 11 8 9 14 20 23 24 23 22 20 20 20 19 20 18 18 16 14 13 15 12 11
21 22 21 20 20 17 16 16 17 16 16 15 13 12 15 19 24 26 25 24 24 23 23 24 22 21 19 16 15 15 16 16
25 25 25 25 24 20 19 19 20 20 21 20 20 17 15 14 18 23 26 27 27 27 26 26 25 24 20 18 18 18 18 19
29 29 25 26 26 24 21 21 22 23 24 24 25 24 21 17 15 16 22 26 28 29 29 29 28 26 22 21 20 19 19 20
27 28 25 27 25 25 23 18 17 21 24 26 28 29 27 23 20 17 19 21 23 24 27 29 29 28 27 23 22 21 21 19
21 19 18 21 20 21 20 23 25 25 24 27 30 33 32 29 25 23 21 20 18 18 20 22 22 24 27 27 24 23 22 21
28 25 24 22 21 22 28 30 32 32 31 27 29 32 33 35 30 26 25 22 20 18 18 16 18 23 25 24 24 23 23 20
28 28 27 25 23 27 30 36 37 33 29 26 24 26 32 34 35 31 27 25 22 20 20 20 21 22 22 24 25 23 21 21
32 30 28 28 28 29 32 35 33 28 28 27 28 29 28 30 35 35 31 28 25 23 22 23 23 25 25 25 25 24 23 24
36 31 31 31 30 32 35 33 29 25 24 26 30 32 30 28 31 36 34 30 28 26 26 26 26 28 28 27 28 25 26 27
34 28 29 31 31 32 32 32 32 25 21 23 26 27 29 26 29 34 36 33 31 28 29 29 29 31 31 31 30 27 27 28
30 25 27 30 31 29 31 32 30 25 21 20 20 25 27 26 24 27 34 35 30 28 31 32 33 34 34 31 33 29 29 32
22 24 29 31 29 30 31 29 27 25 20 19 20 18 24 27 28 27 32 34 31 31 32 34 34 37 38 34 31 31 32 34
Wind_Direction
141 140 104 170 203 208 206 201 193 182 177 172 163 154 147 138 134 132 130 126 123 121 121 118 110 94 81 65 63 78 92 102
160 193 144 108 151 215 218 213 208 201 191 188 181 174 167 158 154 148 139 132 125 122 123 122 122 121 109 87 59 70 69 74
133 205 220 184 115 120 226 224 221 216 208 200 196 189 185 178 177 177 171 162 152 146 138 141 149 157 162 138 160 81 87 70
93 58 267 252 237 179 120 224 228 228 224 215 208 205 202 197 195 196 197 191 188 188 190 193 201 202 219 241 317 332 33 22
334 328 339 337 267 263 249 132 204 225 227 227 223 216 218 213 212 210 207 209 210 212 215 223 233 231 240 263 278 296 314 319
277 299 308 308 314 264 260 258 238 228 224 229 233 229 226 224 223 222 220 219 221 224 225 231 241 251 255 259 255 279 288 296
270 280 291 294 292 299 254 261 262 260 252 238 236 237 234 233 228 229 229 230 231 235 235 237 244 251 252 251 258 261 272 281
268 274 274 278 281 286 268 255 260 266 266 256 251 242 242 237 237 233 234 235 239 239 243 244 242 247 256 256 257 269 275 280
263 266 265 268 273 272 269 261 259 264 266 262 261 258 246 244 240 240 240 240 242 243 246 250 252 253 256 262 266 274 281 287
252 253 258 262 269 267 265 261 263 268 266 262 262 260 260 250 244 242 242 244 246 248 250 253 256 258 259 265 271 274 283 286
249 250 257 260 265 262 260 263 261 263 265 265 261 257 254 257 251 244 240 243 247 250 253 256 259 261 260 258 264 271 275 279
249 251 253 256 256 259 260 264 270 268 267 264 262 256 252 253 253 245 243 244 245 253 256 258 258 262 264 264 270 275 278 278
264 262 271 244 252 261 272 286 286 286 277 265 264 260 252 248 248 248 247 251 253 255 255 255 252 260 267 269 273 275 277 276
256 268 275 274 278 285 281 281 282 286 282 270 259 250 252 249 245 246 248 250 253 257 265 259 251 253 258 266 268 274 277 282
249 259 271 276 282 281 286 282 287 289 287 282 273 261 251 246 245 243 245 248 252 251 254 256 255 254 258 260 267 278 277 276
249 253 261 269 275 283 282 282 283 288 285 279 273 269 257 246 242 239 241 245 249 252 249 250 250 255 256 259 264 268 272 275
245 246 257 264 269 277 276 280 287 286 276 275 274 269 264 249 241 238 236 239 245 247 249 249 250 250 254 261 262 267 267 272
240 247 257 261 267 273 279 284 289 280 275 276 275 260 249 247 244 236 235 236 242 247 250 251 250 251 251 254 255 262 267 270
238 249 253 261 274 275 280 283 283 278 273 276 279 258 248 242 243 242 237 235 240 248 253 252 252 255 258 255 251 260 264 270
237 248 251 260 262 276 280 280 279 277 274 276 282 264 247 242 242 243 232 234 243 252 251 253 257 257 254 244 247 259 269 271
Height
3187 3188 3189 3189 3190 3191 3193 3194 3195 3195 3197 3198 3198 3198 3199 3201 3202 3202 3203 3203 3204 3204 3204 3204 3204 3204 3204 3203 3203 3204 3204 3204
3187 3188 3188 3188 3189 3190 3192 3193 3194 3195 3196 3197 3198 3199 3199 3201 3202 3203 3203 3204 3205 3205 3205 3205 3204 3205 3205 3204 3204 3205 3206 3206
3186 3187 3188 3188 3189 3189 3190 3191 3193 3194 3195 3197 3198 3199 3200 3201 3202 3203 3204 3204 3205 3206 3206 3206 3205 3205 3205 3205 3205 3205 3205 3206
3185 3185 3186 3187 3187 3189 3189 3189 3191 3193 3194 3196 3197 3199 3200 3201 3201 3202 3204 3205 3205 3205 3206 3206 3206 3206 3205 3206 3206 3205 3207 3207
3183 3183 3185 3186 3187 3188 3189 3189 3189 3190 3192 3194 3195 3197 3198 3199 3200 3201 3203 3204 3205 3205 3206 3206 3206 3206 3206 3206 3206 3205 3206 3205
3180 3181 3182 3184 3185 3186 3187 3188 3188 3188 3189 3190 3192 3194 3196 3197 3199 3200 3201 3202 3203 3204 3204 3204 3204 3205 3206 3206 3206 3205 3205 3204
3178 3179 3180 3181 3183 3184 3185 3186 3187 3187 3187 3187 3188 3190 3192 3194 3196 3197 3198 3199 3200 3201 3202 3202 3202 3203 3203 3204 3203 3203 3204 3203
3174 3176 3178 3178 3180 3181 3182 3183 3184 3184 3184 3185 3185 3186 3188 3190 3192 3193 3194 3196 3197 3198 3199 3199 3199 3199 3200 3201 3202 3201 3201 3200
3170 3172 3173 3174 3176 3177 3178 3179 3180 3181 3181 3182 3182 3183 3183 3185 3187 3189 3191 3192 3193 3194 3195 3195 3196 3197 3197 3198 3198 3198 3197 3197
3166 3166 3168 3170 3171 3173 3174 3175 3176 3177 3177 3178 3178 3179 3180 3180 3181 3183 3185 3187 3188 3190 3191 3191 3192 3192 3193 3194 3195 3195 3195 3193
3160 3162 3163 3165 3166 3168 3170 3170 3171 3172 3173 3173 3174 3174 3175 3177 3177 3179 3180 3180 3182 3184 3185 3186 3186 3188 3190 3191 3191 3190 3189 3189
3154 3156 3158 3160 3162 3162 3164 3166 3167 3167 3168 3168 3169 3168 3169 3171 3172 3173 3174 3175 3176 3178 3179 3180 3182 3183 3184 3184 3184 3185 3184 3184
3148 3150 3153 3154 3155 3156 3158 3159 3161 3162 3163 3162 3162 3162 3162 3164 3165 3167 3168 3169 3171 3172 3172 3173 3174 3176 3177 3178 3178 3178 3178 3178
3142 3144 3147 3148 3150 3151 3151 3153 3153 3154 3155 3155 3154 3154 3155 3156 3158 3160 3161 3163 3165 3166 3166 3167 3168 3168 3170 3172 3172 3173 3173 3173
3136 3139 3142 3144 3145 3145 3144 3143 3142 3143 3144 3145 3146 3146 3148 3149 3151 3153 3155 3156 3157 3159 3161 3162 3162 3163 3165 3166 3164 3165 3166 3166
3131 3134 3136 3139 3139 3139 3139 3139 3137 3137 3134 3134 3135 3135 3137 3140 3142 3145 3147 3149 3151 3153 3154 3156 3157 3157 3158 3159 3158 3160 3159 3160
3125 3127 3130 3132 3134 3134 3134 3133 3133 3131 3129 3128 3127 3125 3127 3130 3133 3137 3139 3142 3143 3146 3147 3148 3150 3151 3151 3151 3151 3152 3152 3152
3118 3121 3123 3125 3127 3128 3127 3125 3125 3124 3123 3122 3120 3120 3120 3123 3126 3128 3133 3135 3137 3139 3140 3141 3143 3144 3144 3143 3144 3144 3145 3145
3112 3115 3116 3119 3119 3120 3119 3118 3117 3116 3116 3116 3114 3114 3115 3117 3120 3122 3126 3129 3131 3133 3134 3135 3136 3136 3136 3137 3137 3137 3137 3138
3110 3111 3114 3114 3114 3113 3112 3111 3110 3109 3109 3108 3108 3108 3109 3111 3113 3116 3118 3122 3124 3125 3126 3128 3128 3129 3127 3127 3124 3131 3127 3129